Time,TemperatureF,DewpointF,PressureIn,WindDirection,WindDirectionDegrees,WindSpeedMPH,WindSpeedGustMPH,Humidity,HourlyPrecipIn,Conditions,Clouds,dailyrainin,SoftwareType,DateUTC
2013-06-16 00:01:00,52.3,47.0,29.97,East,101,0.0,1.0,82,0.00,,---,0.00,VWS V14.01,2013-06-16 07:01:00,
2013-06-16 00:06:00,52.4,47.1,29.97,East,101,1.0,1.0,82,0.00,,---,0.00,VWS V14.01,2013-06-16 07:06:00,
2013-06-16 00:11:00,52.8,47.5,29.97,ESE,107,0.0,1.0,82,0.00,,---,0.00,VWS V14.01,2013-06-16 07:11:00,
2013-06-16 00:16:00,53.0,47.3,29.96,East,80,0.0,2.0,81,0.00,,---,0.00,VWS V14.01,2013-06-16 07:16:00,
2013-06-16 00:21:00,53.3,47.6,29.97,ENE,78,0.0,3.0,81,0.00,,---,0.00,VWS V14.01,2013-06-16 07:21:00,
2013-06-16 00:26:00,53.5,47.8,29.97,East,80,0.0,2.0,81,0.00,,---,0.00,VWS V14.01,2013-06-16 07:26:00,
2013-06-16 00:31:00,53.5,47.8,29.96,East,87,0.0,2.0,81,0.00,,---,0.00,VWS V14.01,2013-06-16 07:31:00,
2013-06-16 00:36:00,53.5,47.8,29.97,East,82,2.0,2.0,81,0.00,,---,0.00,VWS V14.01,2013-06-16 07:36:00,
2013-06-16 00:41:00,53.4,47.7,29.97,East,87,1.0,3.0,81,0.00,,---,0.00,VWS V14.01,2013-06-16 07:41:00,
2013-06-16 00:46:00,53.3,47.6,29.97,East,87,0.0,0.0,81,0.00,,---,0.00,VWS V14.01,2013-06-16 07:46:00,
2013-06-16 00:51:00,53.2,47.2,29.96,East,87,0.0,0.0,80,0.00,,---,0.00,VWS V14.01,2013-06-16 07:51:00,
2013-06-16 00:56:00,52.9,46.9,29.96,ENE,66,0.0,1.0,80,0.00,,---,0.00,VWS V14.01,2013-06-16 07:56:00,
2013-06-16 01:01:00,52.7,47.0,29.96,ENE,63,0.0,1.0,81,0.00,,---,0.00,VWS V14.01,2013-06-16 08:01:00,
2013-06-16 01:06:00,52.4,47.1,29.96,ENE,63,0.0,0.0,82,0.00,,---,0.00,VWS V14.01,2013-06-16 08:06:00,
2013-06-16 01:11:00,52.3,47.0,29.96,ENE,63,0.0,0.0,82,0.00,,---,0.00,VWS V14.01,2013-06-16 08:11:00,
2013-06-16 01:16:00,52.0,46.7,29.96,ENE,63,0.0,0.0,82,0.00,,---,0.00,VWS V14.01,2013-06-16 08:16:00,
2013-06-16 01:21:00,51.8,46.5,29.96,ENE,63,0.0,0.0,82,0.00,,---,0.00,VWS V14.01,2013-06-16 08:21:00,
2013-06-16 01:26:00,51.5,46.5,29.96,ENE,63,0.0,0.0,83,0.00,,---,0.00,VWS V14.01,2013-06-16 08:26:00,
2013-06-16 01:31:00,51.3,46.3,29.96,ENE,63,0.0,0.0,83,0.00,,---,0.00,VWS V14.01,2013-06-16 08:31:00,
2013-06-16 01:36:00,51.0,46.0,29.96,ENE,63,0.0,0.0,83,0.00,,---,0.00,VWS V14.01,2013-06-16 08:36:00,
2013-06-16 01:41:00,50.8,46.2,29.96,ENE,63,0.0,0.0,84,0.00,,---,0.00,VWS V14.01,2013-06-16 08:41:00,
2013-06-16 01:46:00,50.5,45.8,29.96,ENE,63,0.0,0.0,84,0.00,,---,0.00,VWS V14.01,2013-06-16 08:46:00,
2013-06-16 01:51:00,50.4,45.8,29.96,ENE,63,0.0,0.0,84,0.00,,---,0.00,VWS V14.01,2013-06-16 08:51:00,
2013-06-16 01:56:00,50.2,45.9,29.97,ENE,63,0.0,0.0,85,0.00,,---,0.00,VWS V14.01,2013-06-16 08:56:00,
2013-06-16 02:01:00,50.0,45.7,29.96,ENE,63,0.0,0.0,85,0.00,,---,0.00,VWS V14.01,2013-06-16 09:01:00,
2013-06-16 02:06:00,49.9,45.6,29.97,ENE,63,0.0,0.0,85,0.00,,---,0.00,VWS V14.01,2013-06-16 09:06:00,
2013-06-16 02:11:00,49.8,45.5,29.97,ENE,63,0.0,0.0,85,0.00,,---,0.00,VWS V14.01,2013-06-16 09:11:00,
2013-06-16 02:16:00,49.6,45.6,29.97,ENE,63,0.0,0.0,86,0.00,,---,0.00,VWS V14.01,2013-06-16 09:16:00,
2013-06-16 02:21:00,49.6,45.6,29.97,ENE,63,0.0,0.0,86,0.00,,---,0.00,VWS V14.01,2013-06-16 09:21:00,
2013-06-16 02:26:00,49.5,45.5,29.97,ENE,63,0.0,0.0,86,0.00,,---,0.00,VWS V14.01,2013-06-16 09:26:00,
2013-06-16 02:31:00,49.3,45.3,29.97,ENE,63,0.0,0.0,86,0.00,,---,0.00,VWS V14.01,2013-06-16 09:31:00,
2013-06-16 02:36:00,49.2,45.2,29.97,ENE,63,0.0,0.0,86,0.00,,---,0.00,VWS V14.01,2013-06-16 09:36:00,
2013-06-16 02:41:00,49.1,45.1,29.97,ENE,63,0.0,0.0,86,0.00,,---,0.00,VWS V14.01,2013-06-16 09:41:00,
2013-06-16 02:46:00,49.0,45.3,29.97,ENE,63,0.0,0.0,87,0.00,,---,0.00,VWS V14.01,2013-06-16 09:46:00,
2013-06-16 02:51:00,48.8,44.8,29.97,ENE,63,0.0,0.0,86,0.00,,---,0.00,VWS V14.01,2013-06-16 09:51:00,
2013-06-16 02:56:00,48.7,45.0,29.97,ENE,63,0.0,0.0,87,0.00,,---,0.00,VWS V14.01,2013-06-16 09:56:00,
2013-06-16 03:01:00,48.6,44.9,29.97,ENE,63,0.0,0.0,87,0.00,,---,0.00,VWS V14.01,2013-06-16 10:01:00,
2013-06-16 03:06:00,48.6,44.9,29.97,ENE,63,0.0,0.0,87,0.00,,---,0.00,VWS V14.01,2013-06-16 10:06:00,
2013-06-16 03:11:00,48.5,44.8,29.97,ENE,63,0.0,0.0,87,0.00,,---,0.00,VWS V14.01,2013-06-16 10:11:00,
2013-06-16 03:16:00,48.4,44.7,29.97,ENE,63,0.0,0.0,87,0.00,,---,0.00,VWS V14.01,2013-06-16 10:16:00,
2013-06-16 03:21:00,48.3,44.6,29.97,ENE,63,0.0,0.0,87,0.00,,---,0.00,VWS V14.01,2013-06-16 10:21:00,
2013-06-16 03:25:00,48.3,44.9,29.97,ENE,63,0.0,0.0,88,0.00,,---,0.00,VWS V14.01,2013-06-16 10:25:00,
2013-06-16 03:31:00,48.2,44.8,29.97,ENE,63,0.0,0.0,88,0.00,,---,0.00,VWS V14.01,2013-06-16 10:31:00,
2013-06-16 03:36:00,48.1,44.7,29.97,ENE,63,0.0,0.0,88,0.00,,---,0.00,VWS V14.01,2013-06-16 10:36:00,
2013-06-16 03:41:00,48.1,44.7,29.97,ENE,63,0.0,0.0,88,0.00,,---,0.00,VWS V14.01,2013-06-16 10:41:00,
2013-06-16 03:46:00,48.0,44.6,29.97,ENE,63,0.0,0.0,88,0.00,,---,0.00,VWS V14.01,2013-06-16 10:46:00,
2013-06-16 03:51:00,48.0,44.6,29.97,ENE,63,0.0,0.0,88,0.00,,---,0.00,VWS V14.01,2013-06-16 10:51:00,
2013-06-16 03:56:00,47.9,44.5,29.97,ENE,63,0.0,0.0,88,0.00,,---,0.00,VWS V14.01,2013-06-16 10:56:00,
2013-06-16 04:01:00,47.8,44.4,29.97,ENE,63,0.0,0.0,88,0.00,,---,0.00,VWS V14.01,2013-06-16 11:01:00,
2013-06-16 04:06:00,47.7,44.3,29.97,ENE,63,0.0,0.0,88,0.00,,---,0.00,VWS V14.01,2013-06-16 11:06:00,
2013-06-16 04:11:00,47.6,44.2,29.97,ENE,63,0.0,0.0,88,0.00,,---,0.00,VWS V14.01,2013-06-16 11:11:00,
2013-06-16 04:16:00,47.6,44.2,29.97,ENE,63,0.0,0.0,88,0.00,,---,0.00,VWS V14.01,2013-06-16 11:16:00,
2013-06-16 04:21:00,47.5,44.4,29.97,ENE,63,0.0,0.0,89,0.00,,---,0.00,VWS V14.01,2013-06-16 11:21:00,
2013-06-16 04:26:00,47.5,44.4,29.97,ENE,63,0.0,0.0,89,0.00,,---,0.00,VWS V14.01,2013-06-16 11:26:00,
2013-06-16 04:31:00,47.5,44.4,29.97,ENE,63,0.0,0.0,89,0.00,,---,0.00,VWS V14.01,2013-06-16 11:31:00,
2013-06-16 04:35:00,47.4,44.3,29.97,ENE,63,0.0,0.0,89,0.00,,---,0.00,VWS V14.01,2013-06-16 11:35:00,
2013-06-16 04:40:00,47.4,44.3,29.97,ENE,63,0.0,0.0,89,0.00,,---,0.00,VWS V14.01,2013-06-16 11:40:00,
2013-06-16 04:45:00,47.4,44.3,29.98,ENE,63,0.0,0.0,89,0.00,,---,0.00,VWS V14.01,2013-06-16 11:45:00,
2013-06-16 04:50:00,47.4,44.3,29.98,ENE,63,0.0,0.0,89,0.00,,---,0.00,VWS V14.01,2013-06-16 11:50:00,
2013-06-16 04:55:00,47.4,44.3,29.98,ENE,63,0.0,0.0,89,0.00,,---,0.00,VWS V14.01,2013-06-16 11:55:00,
2013-06-16 05:00:00,47.4,44.3,29.98,ENE,63,0.0,0.0,89,0.00,,---,0.00,VWS V14.01,2013-06-16 12:00:00,
2013-06-16 05:05:00,47.4,44.3,29.98,ENE,63,0.0,0.0,89,0.00,,---,0.00,VWS V14.01,2013-06-16 12:05:00,
2013-06-16 05:10:00,47.3,44.2,29.98,ENE,63,0.0,0.0,89,0.00,,---,0.00,VWS V14.01,2013-06-16 12:10:00,
2013-06-16 05:15:00,47.3,44.2,29.99,ENE,63,0.0,0.0,89,0.00,,---,0.00,VWS V14.01,2013-06-16 12:15:00,
2013-06-16 05:20:00,47.2,44.1,29.99,ENE,63,0.0,0.0,89,0.00,,---,0.00,VWS V14.01,2013-06-16 12:20:00,
2013-06-16 05:25:00,47.1,44.0,29.99,ENE,63,0.0,0.0,89,0.00,,---,0.00,VWS V14.01,2013-06-16 12:25:00,
2013-06-16 05:30:00,47.1,44.0,29.99,ENE,63,0.0,0.0,89,0.00,,---,0.00,VWS V14.01,2013-06-16 12:30:00,
2013-06-16 05:35:00,47.1,44.0,29.99,ENE,63,0.0,0.0,89,0.00,,---,0.00,VWS V14.01,2013-06-16 12:35:00,
2013-06-16 05:40:00,47.0,43.9,29.99,ENE,63,0.0,0.0,89,0.00,,---,0.00,VWS V14.01,2013-06-16 12:40:00,
2013-06-16 05:45:00,47.0,43.9,29.99,ENE,63,0.0,0.0,89,0.00,,---,0.00,VWS V14.01,2013-06-16 12:45:00,
2013-06-16 05:50:00,47.0,44.2,29.99,ENE,63,0.0,0.0,90,0.00,,---,0.00,VWS V14.01,2013-06-16 12:50:00,
2013-06-16 05:55:00,47.0,44.2,29.99,ENE,63,0.0,0.0,90,0.00,,---,0.00,VWS V14.01,2013-06-16 12:55:00,
2013-06-16 06:00:00,47.1,44.3,29.99,ENE,63,0.0,0.0,90,0.00,,---,0.00,VWS V14.01,2013-06-16 13:00:00,
2013-06-16 06:05:00,47.2,44.4,30.00,ENE,63,0.0,0.0,90,0.00,,---,0.00,VWS V14.01,2013-06-16 13:05:00,
2013-06-16 06:10:00,47.3,44.5,30.00,ENE,63,0.0,0.0,90,0.00,,---,0.00,VWS V14.01,2013-06-16 13:10:00,
2013-06-16 06:15:00,47.4,44.6,30.00,ENE,63,0.0,0.0,90,0.00,,---,0.00,VWS V14.01,2013-06-16 13:15:00,
2013-06-16 06:20:00,47.6,44.8,30.00,ENE,63,0.0,0.0,90,0.00,,---,0.00,VWS V14.01,2013-06-16 13:20:00,
2013-06-16 06:25:00,47.9,45.4,30.00,ENE,63,0.0,0.0,91,0.00,,---,0.00,VWS V14.01,2013-06-16 13:25:00,
2013-06-16 06:30:00,48.3,45.8,30.00,ENE,63,0.0,0.0,91,0.00,,---,0.00,VWS V14.01,2013-06-16 13:30:00,
2013-06-16 06:35:00,48.7,46.2,30.00,ENE,63,0.0,0.0,91,0.00,,---,0.00,VWS V14.01,2013-06-16 13:35:00,
2013-06-16 06:40:00,49.3,46.8,30.00,ENE,63,0.0,0.0,91,0.00,,---,0.00,VWS V14.01,2013-06-16 13:40:00,
2013-06-16 06:45:00,49.9,47.4,30.00,ENE,63,0.0,0.0,91,0.00,,---,0.00,VWS V14.01,2013-06-16 13:45:00,
2013-06-16 06:50:00,50.8,48.6,30.00,ENE,63,0.0,0.0,92,0.00,,---,0.00,VWS V14.01,2013-06-16 13:50:00,
2013-06-16 06:55:00,51.7,49.2,30.00,ENE,63,0.0,0.0,91,0.00,,---,0.00,VWS V14.01,2013-06-16 13:55:00,
2013-06-16 07:00:00,52.6,49.8,30.00,ENE,63,0.0,0.0,90,0.00,,---,0.00,VWS V14.01,2013-06-16 14:00:00,
2013-06-16 07:05:00,53.5,50.0,30.00,ESE,104,0.0,2.0,88,0.00,,---,0.00,VWS V14.01,2013-06-16 14:05:00,
2013-06-16 07:10:00,54.7,50.6,30.01,ENE,61,0.0,3.0,86,0.00,,---,0.00,VWS V14.01,2013-06-16 14:10:00,
2013-06-16 07:15:00,56.0,51.2,30.01,ENE,61,0.0,1.0,84,0.00,,---,0.00,VWS V14.01,2013-06-16 14:15:00,
2013-06-16 07:20:00,57.0,51.9,30.01,ENE,61,0.0,1.0,83,0.00,,---,0.00,VWS V14.01,2013-06-16 14:20:00,
2013-06-16 07:25:00,57.9,51.4,30.01,ESE,119,0.0,1.0,79,0.00,,---,0.00,VWS V14.01,2013-06-16 14:25:00,
2013-06-16 07:30:00,58.6,51.4,30.01,ESE,107,0.0,1.0,77,0.00,,---,0.00,VWS V14.01,2013-06-16 14:30:00,
2013-06-16 07:35:00,59.1,51.2,30.01,ESE,107,0.0,0.0,75,0.00,,---,0.00,VWS V14.01,2013-06-16 14:35:00,
2013-06-16 07:40:00,60.1,51.8,30.01,ESE,107,0.0,0.0,74,0.00,,---,0.00,VWS V14.01,2013-06-16 14:40:00,
2013-06-16 07:45:00,61.0,51.5,30.01,ESE,107,0.0,0.0,71,0.00,,---,0.00,VWS V14.01,2013-06-16 14:45:00,
2013-06-16 07:50:00,61.8,51.1,30.02,ESE,117,0.0,1.0,68,0.00,,---,0.00,VWS V14.01,2013-06-16 14:50:00,
2013-06-16 07:55:00,62.4,51.3,30.02,ESE,117,0.0,0.0,67,0.00,,---,0.00,VWS V14.01,2013-06-16 14:55:00,
2013-06-16 08:00:00,63.1,51.6,30.02,ENE,75,0.0,1.0,66,0.00,,---,0.00,VWS V14.01,2013-06-16 15:00:00,
2013-06-16 08:05:00,63.4,51.0,30.02,NE,55,4.0,4.0,64,0.00,,---,0.00,VWS V14.01,2013-06-16 15:05:00,
2013-06-16 08:10:00,63.2,50.8,30.02,NE,51,1.0,4.0,64,0.00,,---,0.00,VWS V14.01,2013-06-16 15:10:00,
2013-06-16 08:15:00,63.0,50.7,30.02,NE,46,0.0,1.0,64,0.00,,---,0.00,VWS V14.01,2013-06-16 15:15:00,
2013-06-16 08:20:00,63.3,50.9,30.02,ESE,113,3.0,3.0,64,0.00,,---,0.00,VWS V14.01,2013-06-16 15:20:00,
2013-06-16 08:25:00,63.9,51.1,30.02,East,91,0.0,2.0,63,0.00,,---,0.00,VWS V14.01,2013-06-16 15:25:00,
2013-06-16 08:30:00,64.4,50.7,30.03,East,99,0.0,2.0,61,0.00,,---,0.00,VWS V14.01,2013-06-16 15:30:00,
2013-06-16 08:35:00,64.6,50.4,30.03,ENE,76,1.0,3.0,60,0.00,,---,0.00,VWS V14.01,2013-06-16 15:35:00,
2013-06-16 08:40:00,64.9,50.7,30.02,NE,47,0.0,4.0,60,0.00,,---,0.00,VWS V14.01,2013-06-16 15:40:00,
2013-06-16 08:45:00,65.3,50.6,30.03,East,96,0.0,3.0,59,0.00,,---,0.00,VWS V14.01,2013-06-16 15:45:00,
2013-06-16 08:50:00,65.6,50.4,30.03,ESE,113,0.0,4.0,58,0.00,,---,0.00,VWS V14.01,2013-06-16 15:50:00,
2013-06-16 08:55:00,66.1,50.9,30.03,East,98,3.0,3.0,58,0.00,,---,0.00,VWS V14.01,2013-06-16 15:55:00,
2013-06-16 09:00:00,66.6,50.4,30.03,East,97,0.0,5.0,56,0.00,,---,0.00,VWS V14.01,2013-06-16 16:00:00,
2013-06-16 09:05:00,67.0,50.3,30.03,East,97,0.0,3.0,55,0.00,,---,0.00,VWS V14.01,2013-06-16 16:05:00,
2013-06-16 09:10:00,67.4,50.7,30.03,ENE,71,1.0,5.0,55,0.00,,---,0.00,VWS V14.01,2013-06-16 16:10:00,
2013-06-16 09:15:00,67.7,51.0,30.03,NE,46,2.0,3.0,55,0.00,,---,0.00,VWS V14.01,2013-06-16 16:15:00,
2013-06-16 09:20:00,68.1,50.3,30.03,East,98,1.0,4.0,53,0.00,,---,0.00,VWS V14.01,2013-06-16 16:20:00,
2013-06-16 09:25:00,68.6,50.3,30.03,NE,50,1.0,3.0,52,0.00,,---,0.00,VWS V14.01,2013-06-16 16:25:00,
2013-06-16 09:30:00,68.9,50.0,30.03,ESE,103,0.0,4.0,51,0.00,,---,0.00,VWS V14.01,2013-06-16 16:30:00,
2013-06-16 09:35:00,69.2,49.2,30.03,NE,36,0.0,4.0,49,0.00,,---,0.00,VWS V14.01,2013-06-16 16:35:00,
2013-06-16 09:40:00,69.7,49.2,30.03,East,93,1.0,4.0,48,0.00,,---,0.00,VWS V14.01,2013-06-16 16:40:00,
2013-06-16 09:45:00,70.1,50.1,30.03,East,95,2.0,2.0,49,0.00,,---,0.00,VWS V14.01,2013-06-16 16:45:00,
2013-06-16 09:50:00,70.6,49.4,30.03,ESE,103,0.0,3.0,47,0.00,,---,0.00,VWS V14.01,2013-06-16 16:50:00,
2013-06-16 09:55:00,71.0,50.3,30.03,SE,141,0.0,3.0,48,0.00,,---,0.00,VWS V14.01,2013-06-16 16:55:00,
2013-06-16 10:00:00,71.6,50.9,30.03,ENE,69,1.0,3.0,48,0.00,,---,0.00,VWS V14.01,2013-06-16 17:00:00,
2013-06-16 10:05:00,72.2,50.9,30.03,ENE,67,0.0,3.0,47,0.00,,---,0.00,VWS V14.01,2013-06-16 17:05:00,
2013-06-16 10:10:00,72.7,50.8,30.03,ESE,116,2.0,3.0,46,0.00,,---,0.00,VWS V14.01,2013-06-16 17:10:00,
2013-06-16 10:15:00,73.3,50.7,30.03,SE,126,0.0,5.0,45,0.00,,---,0.00,VWS V14.01,2013-06-16 17:15:00,
2013-06-16 10:20:00,74.1,51.4,30.03,ENE,63,1.0,5.0,45,0.00,,---,0.00,VWS V14.01,2013-06-16 17:20:00,
2013-06-16 10:25:00,74.5,51.2,30.03,East,91,0.0,2.0,44,0.00,,---,0.00,VWS V14.01,2013-06-16 17:25:00,
2013-06-16 10:30:00,75.0,51.0,30.03,SE,125,1.0,2.0,43,0.00,,---,0.00,VWS V14.01,2013-06-16 17:30:00,
2013-06-16 10:35:00,75.4,52.0,30.03,ESE,115,1.0,4.0,44,0.00,,---,0.00,VWS V14.01,2013-06-16 17:35:00,
2013-06-16 10:40:00,75.9,51.2,30.03,ESE,112,0.0,4.0,42,0.00,,---,0.00,VWS V14.01,2013-06-16 17:40:00,
2013-06-16 10:45:00,76.9,51.4,30.03,East,82,1.0,2.0,41,0.00,,---,0.00,VWS V14.01,2013-06-16 17:45:00,
2013-06-16 10:50:00,77.3,50.4,30.03,West,267,2.0,4.0,39,0.00,,---,0.00,VWS V14.01,2013-06-16 17:50:00,
2013-06-16 10:55:00,77.7,50.1,30.03,NW,308,0.0,1.0,38,0.00,,---,0.00,VWS V14.01,2013-06-16 17:55:00,
2013-06-16 11:00:00,78.3,49.2,30.03,NE,48,2.0,5.0,36,0.00,,---,0.00,VWS V14.01,2013-06-16 18:00:00,
2013-06-16 11:05:00,78.9,49.0,30.03,NW,310,3.0,3.0,35,0.00,,---,0.00,VWS V14.01,2013-06-16 18:05:00,
2013-06-16 11:10:00,79.3,49.3,30.03,WNW,302,1.0,3.0,35,0.00,,---,0.00,VWS V14.01,2013-06-16 18:10:00,
2013-06-16 11:15:00,79.1,49.9,30.03,NW,323,5.0,5.0,36,0.00,,---,0.00,VWS V14.01,2013-06-16 18:15:00,
2013-06-16 11:20:00,78.8,48.9,30.03,West,270,0.0,5.0,35,0.00,,---,0.00,VWS V14.01,2013-06-16 18:20:00,
2013-06-16 11:25:00,79.4,50.2,30.03,NNW,346,0.0,5.0,36,0.00,,---,0.00,VWS V14.01,2013-06-16 18:25:00,
2013-06-16 11:30:00,79.8,49.7,30.03,North,5,1.0,5.0,35,0.00,,---,0.00,VWS V14.01,2013-06-16 18:30:00,
2013-06-16 11:35:00,79.8,49.7,30.03,North,9,0.0,5.0,35,0.00,,---,0.00,VWS V14.01,2013-06-16 18:35:00,
2013-06-16 11:40:00,80.0,49.9,30.03,WNW,300,1.0,5.0,35,0.00,,---,0.00,VWS V14.01,2013-06-16 18:40:00,
2013-06-16 11:45:00,79.9,49.0,30.03,North,355,1.0,5.0,34,0.00,,---,0.00,VWS V14.01,2013-06-16 18:45:00,
2013-06-16 11:50:00,79.9,49.0,30.03,NNW,346,4.0,5.0,34,0.00,,---,0.00,VWS V14.01,2013-06-16 18:50:00,
2013-06-16 11:55:00,80.1,49.2,30.03,WNW,294,0.0,5.0,34,0.00,,---,0.00,VWS V14.01,2013-06-16 18:55:00,
2013-06-16 12:00:00,80.3,49.4,30.03,North,355,0.0,5.0,34,0.00,,---,0.00,VWS V14.01,2013-06-16 19:00:00,
2013-06-16 12:05:00,80.7,49.8,30.03,West,279,0.0,5.0,34,0.00,,---,0.00,VWS V14.01,2013-06-16 19:05:00,
2013-06-16 12:10:00,80.8,49.0,30.03,West,279,4.0,6.0,33,0.00,,---,0.00,VWS V14.01,2013-06-16 19:10:00,
2013-06-16 12:15:00,80.7,49.8,30.03,WNW,296,0.0,3.0,34,0.00,,---,0.00,VWS V14.01,2013-06-16 19:15:00,
2013-06-16 12:20:00,80.3,49.4,30.03,WSW,252,1.0,12.0,34,0.00,,---,0.00,VWS V14.01,2013-06-16 19:20:00,
2013-06-16 12:25:00,80.3,49.4,30.03,North,5,6.0,6.0,34,0.00,,---,0.00,VWS V14.01,2013-06-16 19:25:00,
2013-06-16 12:30:00,80.7,49.8,30.03,NNE,19,7.0,7.0,34,0.00,,---,0.00,VWS V14.01,2013-06-16 19:30:00,
2013-06-16 12:35:00,81.2,51.0,30.03,WNW,292,0.0,4.0,35,0.00,,---,0.00,VWS V14.01,2013-06-16 19:35:00,
2013-06-16 12:40:00,81.5,49.7,30.03,NW,304,0.0,5.0,33,0.00,,---,0.00,VWS V14.01,2013-06-16 19:40:00,
2013-06-16 12:45:00,81.8,49.1,30.03,North,351,0.0,4.0,32,0.00,,---,0.00,VWS V14.01,2013-06-16 19:45:00,
2013-06-16 12:50:00,82.3,49.5,30.03,NNW,347,1.0,4.0,32,0.00,,---,0.00,VWS V14.01,2013-06-16 19:50:00,
2013-06-16 12:55:00,82.9,50.0,30.02,West,281,4.0,4.0,32,0.00,,---,0.00,VWS V14.01,2013-06-16 19:55:00,
2013-06-16 13:00:00,83.3,49.5,30.02,NE,34,2.0,6.0,31,0.00,,---,0.00,VWS V14.01,2013-06-16 20:00:00,
2013-06-16 13:05:00,83.4,47.8,30.02,WSW,255,3.0,7.0,29,0.00,,---,0.00,VWS V14.01,2013-06-16 20:05:00,
2013-06-16 13:10:00,83.0,48.4,30.02,WNW,301,5.0,7.0,30,0.00,,---,0.00,VWS V14.01,2013-06-16 20:10:00,
2013-06-16 13:15:00,83.4,47.8,30.02,WNW,300,3.0,3.0,29,0.00,,---,0.00,VWS V14.01,2013-06-16 20:15:00,
2013-06-16 13:20:00,83.9,49.2,30.02,West,276,0.0,5.0,30,0.00,,---,0.00,VWS V14.01,2013-06-16 20:20:00,
2013-06-16 13:25:00,84.2,49.4,30.02,WSW,251,1.0,7.0,30,0.00,,---,0.00,VWS V14.01,2013-06-16 20:25:00,
2013-06-16 13:30:00,84.3,47.7,30.02,WSW,238,1.0,7.0,28,0.00,,---,0.00,VWS V14.01,2013-06-16 20:30:00,
2013-06-16 13:35:00,84.1,48.5,30.01,SW,229,3.0,5.0,29,0.00,,---,0.00,VWS V14.01,2013-06-16 20:35:00,
2013-06-16 13:40:00,83.8,47.2,30.02,West,270,0.0,8.0,28,0.00,,---,0.00,VWS V14.01,2013-06-16 20:40:00,
2013-06-16 13:45:00,84.1,48.5,30.02,WNW,302,0.0,8.0,29,0.00,,---,0.00,VWS V14.01,2013-06-16 20:45:00,
2013-06-16 13:50:00,84.1,47.5,30.02,WSW,254,3.0,8.0,28,0.00,,---,0.00,VWS V14.01,2013-06-16 20:50:00,
2013-06-16 13:55:00,84.1,48.5,30.02,WNW,282,3.0,4.0,29,0.00,,---,0.00,VWS V14.01,2013-06-16 20:55:00,
2013-06-16 14:00:00,84.1,47.5,30.02,WNW,302,0.0,9.0,28,0.00,,---,0.00,VWS V14.01,2013-06-16 21:00:00,
2013-06-16 14:05:00,84.5,47.8,30.02,WNW,288,3.0,5.0,28,0.00,,---,0.00,VWS V14.01,2013-06-16 21:05:00,
2013-06-16 14:10:00,84.2,47.6,30.02,WSW,254,5.0,10.0,28,0.00,,---,0.00,VWS V14.01,2013-06-16 21:10:00,
2013-06-16 14:15:00,83.9,47.3,30.02,WNW,288,0.0,7.0,28,0.00,,---,0.00,VWS V14.01,2013-06-16 21:15:00,
2013-06-16 14:20:00,84.3,46.7,30.01,NW,306,6.0,7.0,27,0.00,,---,0.00,VWS V14.01,2013-06-16 21:20:00,
2013-06-16 14:25:00,84.0,48.4,30.01,West,279,3.0,6.0,29,0.00,,---,0.00,VWS V14.01,2013-06-16 21:25:00,
2013-06-16 14:30:00,84.0,50.2,30.01,NE,34,1.0,7.0,31,0.00,,---,0.00,VWS V14.01,2013-06-16 21:30:00,
2013-06-16 14:35:00,84.7,49.9,30.01,ENE,73,3.0,3.0,30,0.00,,---,0.00,VWS V14.01,2013-06-16 21:35:00,
2013-06-16 14:40:00,85.2,50.3,30.01,SW,218,0.0,5.0,30,0.00,,---,0.00,VWS V14.01,2013-06-16 21:40:00,
2013-06-16 14:45:00,85.2,48.5,30.01,West,269,4.0,10.0,28,0.00,,---,0.00,VWS V14.01,2013-06-16 21:45:00,
2013-06-16 14:50:00,84.7,49.9,30.02,West,265,2.0,10.0,30,0.00,,---,0.00,VWS V14.01,2013-06-16 21:50:00,
2013-06-16 14:55:00,84.3,50.4,30.02,WNW,288,2.0,3.0,31,0.00,,---,0.00,VWS V14.01,2013-06-16 21:55:00,
2013-06-16 15:00:00,83.9,50.1,30.02,West,273,4.0,7.0,31,0.00,,---,0.00,VWS V14.01,2013-06-16 22:00:00,
2013-06-16 15:05:00,83.6,50.7,30.02,West,277,3.0,4.0,32,0.00,,---,0.00,VWS V14.01,2013-06-16 22:05:00,
2013-06-16 15:10:00,83.1,50.2,30.02,SW,227,3.0,11.0,32,0.00,,---,0.00,VWS V14.01,2013-06-16 22:10:00,
2013-06-16 15:15:00,82.9,51.7,30.02,WNW,298,0.0,4.0,34,0.00,,---,0.00,VWS V14.01,2013-06-16 22:15:00,
2013-06-16 15:20:00,82.9,50.0,30.02,West,272,0.0,4.0,32,0.00,,---,0.00,VWS V14.01,2013-06-16 22:20:00,
2013-06-16 15:25:00,83.4,48.8,30.02,SW,229,3.0,7.0,30,0.00,,---,0.00,VWS V14.01,2013-06-16 22:25:00,
2013-06-16 15:30:00,83.6,48.9,30.02,South,178,0.0,7.0,30,0.00,,---,0.00,VWS V14.01,2013-06-16 22:30:00,
2013-06-16 15:35:00,83.7,49.0,30.01,West,265,4.0,7.0,30,0.00,,---,0.00,VWS V14.01,2013-06-16 22:35:00,
2013-06-16 15:40:00,83.7,48.1,30.01,NW,313,1.0,9.0,29,0.00,,---,0.00,VWS V14.01,2013-06-16 22:40:00,
2013-06-16 15:45:00,84.2,47.6,30.02,WNW,287,3.0,4.0,28,0.00,,---,0.00,VWS V14.01,2013-06-16 22:45:00,
2013-06-16 15:50:00,84.0,47.4,30.01,WNW,283,5.0,10.0,28,0.00,,---,0.00,VWS V14.01,2013-06-16 22:50:00,
2013-06-16 15:55:00,83.3,47.8,30.01,West,261,0.0,11.0,29,0.00,,---,0.00,VWS V14.01,2013-06-16 22:55:00,
2013-06-16 16:00:00,83.5,47.9,30.01,West,275,3.0,11.0,29,0.00,,---,0.00,VWS V14.01,2013-06-16 23:00:00,
2013-06-16 16:05:00,83.2,47.7,30.02,West,264,2.0,10.0,29,0.00,,---,0.00,VWS V14.01,2013-06-16 23:05:00,
2013-06-16 16:10:00,83.0,48.4,30.02,WSW,255,2.0,10.0,30,0.00,,---,0.00,VWS V14.01,2013-06-16 23:10:00,
2013-06-16 16:15:00,83.1,50.2,30.01,West,277,4.0,6.0,32,0.00,,---,0.00,VWS V14.01,2013-06-16 23:15:00,
2013-06-16 16:20:00,82.6,49.8,30.02,NNE,24,0.0,6.0,32,0.00,,---,0.00,VWS V14.01,2013-06-16 23:20:00,
2013-06-16 16:25:00,82.8,50.8,30.02,East,94,2.0,3.0,33,0.00,,---,0.00,VWS V14.01,2013-06-16 23:25:00,
2013-06-16 16:30:00,82.9,50.9,30.02,South,176,3.0,5.0,33,0.00,,---,0.00,VWS V14.01,2013-06-16 23:30:00,
2013-06-16 16:35:00,82.5,50.5,30.02,NW,320,0.0,7.0,33,0.00,,---,0.00,VWS V14.01,2013-06-16 23:35:00,
2013-06-16 16:40:00,82.2,50.3,30.02,WSW,255,0.0,7.0,33,0.00,,---,0.00,VWS V14.01,2013-06-16 23:40:00,
2013-06-16 16:45:00,82.0,50.1,30.02,WNW,300,0.0,2.0,33,0.00,,---,0.00,VWS V14.01,2013-06-16 23:45:00,
2013-06-16 16:50:00,81.9,47.5,30.02,WSW,238,1.0,10.0,30,0.00,,---,0.00,VWS V14.01,2013-06-16 23:50:00,
2013-06-16 16:55:00,81.7,48.2,30.02,NNW,342,7.0,7.0,31,0.00,,---,0.00,VWS V14.01,2013-06-16 23:55:00,
2013-06-16 17:00:00,81.3,50.3,30.01,WSW,253,2.0,9.0,34,0.00,,---,0.00,VWS V14.01,2013-06-17 00:00:00,
2013-06-16 17:05:00,81.0,48.4,30.01,WSW,255,4.0,6.0,32,0.00,,---,0.00,VWS V14.01,2013-06-17 00:05:00,
2013-06-16 17:10:00,80.9,47.5,30.01,NW,311,0.0,10.0,31,0.00,,---,0.00,VWS V14.01,2013-06-17 00:10:00,
2013-06-16 17:15:00,80.9,47.5,30.01,North,11,2.0,9.0,31,0.00,,---,0.00,VWS V14.01,2013-06-17 00:15:00,
2013-06-16 17:20:00,80.7,48.1,30.02,WSW,251,0.0,9.0,32,0.00,,---,0.00,VWS V14.01,2013-06-17 00:20:00,
2013-06-16 17:25:00,80.6,48.0,30.01,NW,317,0.0,7.0,32,0.00,,---,0.00,VWS V14.01,2013-06-17 00:25:00,
2013-06-16 17:30:00,80.4,47.9,30.01,NNE,30,7.0,14.0,32,0.00,,---,0.00,VWS V14.01,2013-06-17 00:30:00,
2013-06-16 17:35:00,80.3,48.6,30.01,SW,214,2.0,8.0,33,0.00,,---,0.00,VWS V14.01,2013-06-17 00:35:00,
2013-06-16 17:40:00,80.3,49.4,30.01,South,180,0.0,8.0,34,0.00,,---,0.00,VWS V14.01,2013-06-17 00:40:00,
2013-06-16 17:45:00,80.2,50.8,30.01,WSW,257,5.0,5.0,36,0.00,,---,0.00,VWS V14.01,2013-06-17 00:45:00,
2013-06-16 17:50:00,80.1,50.8,30.01,SE,142,0.0,5.0,36,0.00,,---,0.00,VWS V14.01,2013-06-17 00:50:00,
2013-06-16 17:55:00,79.8,49.7,30.01,West,260,2.0,4.0,35,0.00,,---,0.00,VWS V14.01,2013-06-17 00:55:00,
2013-06-16 18:00:00,79.6,49.6,30.01,West,263,3.0,4.0,35,0.00,,---,0.00,VWS V14.01,2013-06-17 01:00:00,
2013-06-16 18:05:00,79.5,50.2,30.01,WNW,298,1.0,3.0,36,0.00,,---,0.00,VWS V14.01,2013-06-17 01:05:00,
2013-06-16 18:10:00,79.4,50.9,30.01,SSE,148,0.0,5.0,37,0.00,,---,0.00,VWS V14.01,2013-06-17 01:10:00,
2013-06-16 18:15:00,79.0,50.5,30.01,WSW,252,0.0,3.0,37,0.00,,---,0.00,VWS V14.01,2013-06-17 01:15:00,
2013-06-16 18:20:00,79.2,51.4,30.01,WNW,298,0.0,3.0,38,0.00,,---,0.00,VWS V14.01,2013-06-17 01:20:00,
2013-06-16 18:25:00,79.3,50.1,30.01,SW,234,0.0,2.0,36,0.00,,---,0.00,VWS V14.01,2013-06-17 01:25:00,
2013-06-16 18:30:00,79.2,49.2,30.01,NW,311,0.0,4.0,35,0.00,,---,0.00,VWS V14.01,2013-06-17 01:30:00,
2013-06-16 18:35:00,78.9,47.4,30.01,West,267,0.0,5.0,33,0.00,,---,0.00,VWS V14.01,2013-06-17 01:35:00,
2013-06-16 18:40:00,78.4,47.0,30.01,NNW,337,1.0,7.0,33,0.00,,---,0.00,VWS V14.01,2013-06-17 01:40:00,
2013-06-16 18:45:00,78.2,46.8,30.01,WNW,288,2.0,4.0,33,0.00,,---,0.00,VWS V14.01,2013-06-17 01:45:00,
2013-06-16 18:50:00,78.0,45.8,30.01,NW,325,1.0,4.0,32,0.00,,---,0.00,VWS V14.01,2013-06-17 01:50:00,
2013-06-16 18:55:00,77.5,46.2,30.01,NNW,344,0.0,4.0,33,0.00,,---,0.00,VWS V14.01,2013-06-17 01:55:00,
2013-06-16 19:00:00,77.3,45.2,30.01,WSW,242,0.0,11.0,32,0.00,,---,0.00,VWS V14.01,2013-06-17 02:00:00,
2013-06-16 19:05:00,77.0,45.7,30.01,West,281,1.0,9.0,33,0.00,,---,0.00,VWS V14.01,2013-06-17 02:05:00,
2013-06-16 19:10:00,76.9,44.8,30.02,WNW,292,2.0,9.0,32,0.00,,---,0.00,VWS V14.01,2013-06-17 02:10:00,
2013-06-16 19:15:00,76.6,46.9,30.02,West,259,0.0,1.0,35,0.00,,---,0.00,VWS V14.01,2013-06-17 02:15:00,
2013-06-16 19:20:00,76.4,47.5,30.02,SSW,199,1.0,3.0,36,0.00,,---,0.00,VWS V14.01,2013-06-17 02:20:00,
2013-06-16 19:25:00,76.0,47.9,30.02,SSW,198,0.0,3.0,37,0.00,,---,0.00,VWS V14.01,2013-06-17 02:25:00,
2013-06-16 19:30:00,75.5,48.8,30.02,SW,221,2.0,3.0,39,0.00,,---,0.00,VWS V14.01,2013-06-17 02:30:00,
2013-06-16 19:35:00,74.9,48.3,30.03,SE,128,0.0,2.0,39,0.00,,---,0.00,VWS V14.01,2013-06-17 02:35:00,
2013-06-16 19:40:00,74.1,49.6,30.03,SE,144,0.0,8.0,42,0.00,,---,0.00,VWS V14.01,2013-06-17 02:40:00,
2013-06-16 19:44:00,73.2,49.4,30.03,South,190,0.0,4.0,43,0.00,,---,0.00,VWS V14.01,2013-06-17 02:44:00,
2013-06-16 19:49:00,72.4,48.7,30.03,West,269,0.0,5.0,43,0.00,,---,0.00,VWS V14.01,2013-06-17 02:49:00,
2013-06-16 19:54:00,72.0,48.3,30.03,West,275,0.0,1.0,43,0.00,,---,0.00,VWS V14.01,2013-06-17 02:54:00,
2013-06-16 19:59:00,71.5,47.8,30.03,WSW,237,0.0,3.0,43,0.00,,---,0.00,VWS V14.01,2013-06-17 02:59:00,
2013-06-16 20:04:00,71.1,49.3,30.03,SE,133,4.0,4.0,46,0.00,,---,0.00,VWS V14.01,2013-06-17 03:04:00,
2013-06-16 20:09:00,70.4,50.3,30.03,ESE,111,0.0,4.0,49,0.00,,---,0.00,VWS V14.01,2013-06-17 03:09:00,
2013-06-16 20:14:00,69.9,48.2,30.03,South,180,2.0,2.0,46,0.00,,---,0.00,VWS V14.01,2013-06-17 03:14:00,
2013-06-16 20:19:00,69.5,47.8,30.03,NW,309,0.0,4.0,46,0.00,,---,0.00,VWS V14.01,2013-06-17 03:19:00,
2013-06-16 20:24:00,69.2,49.2,30.03,SSW,202,0.0,2.0,49,0.00,,---,0.00,VWS V14.01,2013-06-17 03:24:00,
2013-06-16 20:29:00,68.9,48.4,30.03,WNW,290,2.0,2.0,48,0.00,,---,0.00,VWS V14.01,2013-06-17 03:29:00,
2013-06-16 20:34:00,68.5,48.1,30.03,NNW,345,0.0,1.0,48,0.00,,---,0.00,VWS V14.01,2013-06-17 03:34:00,
2013-06-16 20:39:00,68.3,47.9,30.03,East,86,1.0,1.0,48,0.00,,---,0.00,VWS V14.01,2013-06-17 03:39:00,
2013-06-16 20:44:00,67.8,50.1,30.03,SE,130,0.0,3.0,53,0.00,,---,0.00,VWS V14.01,2013-06-17 03:44:00,
2013-06-16 20:49:00,67.3,50.1,30.03,ENE,74,0.0,3.0,54,0.00,,---,0.00,VWS V14.01,2013-06-17 03:49:00,
2013-06-16 20:54:00,66.7,50.0,30.03,ENE,74,0.0,0.0,55,0.00,,---,0.00,VWS V14.01,2013-06-17 03:54:00,
2013-06-16 20:59:00,66.2,50.1,30.03,East,90,0.0,1.0,56,0.00,,---,0.00,VWS V14.01,2013-06-17 03:59:00,
2013-06-16 21:01:00,66.1,50.4,30.03,East,90,0.0,1.0,57,0.00,,---,0.00,VWS V14.01,2013-06-17 04:01:00,
2013-06-16 21:06:00,65.6,50.0,30.03,East,90,0.0,0.0,57,0.00,,---,0.00,VWS V14.01,2013-06-17 04:06:00,
2013-06-16 21:11:00,65.1,50.9,30.03,NE,47,0.0,4.0,60,0.00,,---,0.00,VWS V14.01,2013-06-17 04:11:00,
2013-06-16 21:16:00,64.8,51.0,30.04,ENE,71,1.0,5.0,61,0.00,,---,0.00,VWS V14.01,2013-06-17 04:16:00,
2013-06-16 21:21:00,64.4,51.1,30.04,East,101,1.0,5.0,62,0.00,,---,0.00,VWS V14.01,2013-06-17 04:21:00,
2013-06-16 21:26:00,64.1,50.8,30.03,East,101,0.0,1.0,62,0.00,,---,0.00,VWS V14.01,2013-06-17 04:26:00,
2013-06-16 21:31:00,63.9,51.1,30.04,East,101,0.0,1.0,63,0.00,,---,0.00,VWS V14.01,2013-06-17 04:31:00,
2013-06-16 21:36:00,63.6,50.8,30.03,East,101,0.0,1.0,63,0.00,,---,0.00,VWS V14.01,2013-06-17 04:36:00,
2013-06-16 21:41:00,63.3,50.9,30.04,East,101,0.0,1.0,64,0.00,,---,0.00,VWS V14.01,2013-06-17 04:41:00,
2013-06-16 21:46:00,63.0,50.7,30.04,East,90,0.0,1.0,64,0.00,,---,0.00,VWS V14.01,2013-06-17 04:46:00,
2013-06-16 21:51:00,62.7,50.8,30.04,East,90,0.0,1.0,65,0.00,,---,0.00,VWS V14.01,2013-06-17 04:51:00,
2013-06-16 21:56:00,62.5,51.0,30.04,East,90,0.0,0.0,66,0.00,,---,0.00,VWS V14.01,2013-06-17 04:56:00,
2013-06-16 22:01:00,62.2,50.7,30.04,East,90,0.0,0.0,66,0.00,,---,0.00,VWS V14.01,2013-06-17 05:01:00,
2013-06-16 22:06:00,62.0,50.9,30.05,East,87,0.0,0.0,67,0.00,,---,0.00,VWS V14.01,2013-06-17 05:06:00,
2013-06-16 22:11:00,61.5,50.8,30.05,NE,40,1.0,2.0,68,0.00,,---,0.00,VWS V14.01,2013-06-17 05:11:00,
2013-06-16 22:16:00,61.1,50.9,30.05,ENE,66,1.0,1.0,69,0.00,,---,0.00,VWS V14.01,2013-06-17 05:16:00,
2013-06-16 22:21:00,60.6,50.4,30.05,ENE,74,0.0,1.0,69,0.00,,---,0.00,VWS V14.01,2013-06-17 05:21:00,
2013-06-16 22:26:00,60.2,50.4,30.05,East,86,0.0,2.0,70,0.00,,---,0.00,VWS V14.01,2013-06-17 05:26:00,
2013-06-16 22:31:00,59.9,50.5,30.05,East,86,0.0,2.0,71,0.00,,---,0.00,VWS V14.01,2013-06-17 05:31:00,
2013-06-16 22:36:00,59.6,50.2,30.05,East,86,0.0,0.0,71,0.00,,---,0.00,VWS V14.01,2013-06-17 05:36:00,
2013-06-16 22:41:00,59.4,50.4,30.05,East,86,0.0,0.0,72,0.00,,---,0.00,VWS V14.01,2013-06-17 05:41:00,
2013-06-16 22:46:00,59.0,50.0,30.05,East,86,0.0,0.0,72,0.00,,---,0.00,VWS V14.01,2013-06-17 05:46:00,
2013-06-16 22:51:00,59.0,50.4,30.05,East,86,0.0,0.0,73,0.00,,---,0.00,VWS V14.01,2013-06-17 05:51:00,
2013-06-16 22:56:00,59.0,50.7,30.05,East,86,0.0,1.0,74,0.00,,---,0.00,VWS V14.01,2013-06-17 05:56:00,
2013-06-16 23:01:00,58.6,50.3,30.05,East,82,0.0,1.0,74,0.00,,---,0.00,VWS V14.01,2013-06-17 06:01:00,
2013-06-16 23:06:00,58.4,50.5,30.05,ESE,109,0.0,0.0,75,0.00,,---,0.00,VWS V14.01,2013-06-17 06:06:00,
2013-06-16 23:11:00,58.2,50.3,30.05,East,82,0.0,1.0,75,0.00,,---,0.00,VWS V14.01,2013-06-17 06:11:00,
2013-06-16 23:16:00,58.0,50.1,30.05,East,82,0.0,1.0,75,0.00,,---,0.00,VWS V14.01,2013-06-17 06:16:00,
2013-06-16 23:21:00,57.8,50.3,30.05,East,82,0.0,1.0,76,0.00,,---,0.00,VWS V14.01,2013-06-17 06:21:00,
2013-06-16 23:26:00,57.6,50.1,30.05,East,82,0.0,0.0,76,0.00,,---,0.00,VWS V14.01,2013-06-17 06:26:00,
2013-06-16 23:31:00,57.4,49.9,30.05,East,82,0.0,0.0,76,0.00,,---,0.00,VWS V14.01,2013-06-17 06:31:00,
2013-06-16 23:36:00,57.3,49.8,30.05,East,82,0.0,0.0,76,0.00,,---,0.00,VWS V14.01,2013-06-17 06:36:00,
2013-06-16 23:41:00,57.1,49.6,30.05,East,82,0.0,0.0,76,0.00,,---,0.00,VWS V14.01,2013-06-17 06:41:00,
2013-06-16 23:46:00,56.9,49.8,30.05,East,82,0.0,0.0,77,0.00,,---,0.00,VWS V14.01,2013-06-17 06:46:00,
2013-06-16 23:51:00,56.8,49.7,30.05,East,82,0.0,0.0,77,0.00,,---,0.00,VWS V14.01,2013-06-17 06:51:00,
2013-06-16 23:56:00,56.6,49.5,30.05,East,82,0.0,0.0,77,0.00,,---,0.00,VWS V14.01,2013-06-17 06:56:00,